[[{"header":{"parameterUnit":"m.s-1","parameterCategory":1,"la1":30.2991,"la2":30.254,"lo1":-89.0895,"lo2":-89.0444,"dy":0.0017,"dx":0.0017,"nx":28,"ny":28,"refTime":"2024-04-21T21:00:00:Z","depth":0,"parameterNumber":2,"parameterNumberName":"U-component_of_WINDS"},"data":[0,0,0,0,0,0,0,0,0,0,0,0,0,0,0,0,0,0,0,0,0,0,0,0,0,0,0,0,0,0,0,0,0,0,0,0,0,0,0,0,0,0,0,0,0,0,0,0,0,0,0,0,0,0,0,0,0,0,-1.9611,-1.9612,0,-1.9655,-1.9656,-1.9656,-1.9569,-1.9566,-1.9563,-1.9561,-1.9607,-1.961,-1.9614,0,0,0,0,0,0,0,0,0,0,0,0,0,-1.945,-1.9454,-1.9611,-1.9612,-1.9612,-1.9655,-1.9656,-1.9656,-1.957,-1.9566,-1.9563,-1.9559,-1.9605,-1.961,-1.9615,0,0,0,0,0,0,0,0,0,0,0,0,0,-1.951,-1.9455,-1.9611,-1.9574,-1.9571,-1.9655,-1.9656,-1.9656,-1.957,-1.9566,-1.9562,-1.9558,-1.9604,-1.961,-1.9615,-1.9737,0,0,-1.9633,-1.9636,0,0,0,0,0,0,0,0,-1.9507,-1.9516,-1.9579,-1.9577,-1.9574,-1.9602,-1.9616,-1.9684,-1.9571,-1.9571,-1.9561,-1.9556,-1.9609,-1.9614,-1.9632,-1.9739,-1.9741,-1.9634,-1.9637,-1.964,-1.9641,0,0,0,0,0,0,0,-1.9503,-1.9514,-1.9628,-1.958,-1.9577,-1.9555,-1.9559,-1.9628,-1.9613,-1.957,-1.9564,-1.9571,-1.9606,-1.9626,-1.9632,-1.9742,-1.9633,-1.9639,-1.9642,-1.9645,-1.9951,-1.9955,0,0,0,0,0,0,-1.9503,-1.9511,-1.9627,-1.963,-1.9529,-1.9561,-1.9565,-1.9597,-1.9612,-1.961,-1.9574,-1.9566,-1.9618,-1.9625,-1.9633,-1.9777,-1.964,-1.9645,-1.9648,-1.9946,-1.9952,-1.9957,0,0,0,0,0,0,-1.95,-1.9515,-1.9625,-1.9569,-1.9581,-1.9569,-1.9605,-1.9601,-1.962,-1.9615,-1.9612,-1.9597,-1.9615,-1.9625,-1.9712,-1.9778,-1.9648,-1.9653,-1.9941,-1.9948,-1.9954,-2.0066,0,0,0,0,0,0,-1.9496,-1.9514,-1.9561,-1.957,-1.9584,-1.9704,-1.9609,-1.9605,-1.9631,-1.9621,-1.9636,-1.9634,-1.9613,-1.9704,-1.9718,-1.9783,-1.9658,-1.9935,-1.9944,-1.9952,-2.0057,-2.0076,-2.0093,0,0,0,0,0,-1.9491,-1.9591,-1.9564,-1.9578,-1.9643,-1.9708,-1.9716,-1.9689,-1.9636,-1.9683,-1.9679,-1.9634,-1.9767,-1.9713,-1.9728,-1.9797,-1.9931,-1.9941,-1.9952,-2.0049,-2.0073,-2.0093,0,0,0,0,0,0,-1.959,-1.9592,-1.9561,-1.9668,-1.9688,-1.9693,-1.9752,-1.9715,-1.9751,-1.974,-1.9705,-1.9709,-1.9803,-1.9808,-1.9747,-1.9915,-1.984,-1.9854,-1.9909,-1.9931,-1.9949,-1.9947,-1.9662,0,0,0,0,0,-1.9624,-1.9677,-1.9675,-1.9769,-1.9781,-1.9765,-1.9792,-1.9769,-1.9789,-1.9797,-1.98,-1.9821,-1.9867,-1.9899,-1.9942,-2.0056,-2.0058,-2.011,-2.0128,-2.0143,-2.0156,-2.0217,-2.024,-1.9991,-1.9991,-1.9991,0,0,-1.9696,-1.9703,-1.9739,-1.979,-1.9803,-1.9858,-1.9773,-1.9835,-1.9876,-1.9807,-1.9889,-1.9892,-1.9912,-2.0014,-2.0058,-2.0021,-2.0225,-2.0156,-2.0168,-2.0174,-2.023,-2.0254,-2.0275,-1.9998,-1.9997,-1.9996,0,0,-1.9856,-1.9866,-1.9946,-1.996,-1.9981,-1.9968,-1.9987,-1.9997,-1.9996,-2.0078,-2.0027,-2.0074,-2.0155,-2.0172,-2.0191,-2.0354,-2.0314,-2.0369,-2.0464,-2.0524,-2.0543,-2.0561,-2.062,-2.0641,-2.0381,-2.0382,-2.0382,0,-1.9943,-2.0025,-1.9991,-2.0057,-2.0081,-2.0019,-2.0099,-2.0114,-2.0148,-2.0166,-2.0123,-2.0222,-2.0232,-2.0336,-2.0376,-2.0393,-2.0413,-2.0368,-2.0543,-2.056,-2.0576,-2.0632,-2.0654,-2.0388,-2.0387,-2.0387,-2.0386,0,-2.0131,-2.0188,-2.0249,-2.0283,-2.0313,-2.0386,-2.0363,-2.0397,-2.037,-2.0363,-2.0446,-2.0455,-2.0498,-2.052,-2.0495,-2.062,-2.0596,-2.0549,-2.0474,-2.0607,-2.0659,-2.068,-2.0398,-2.0395,-2.0393,-2.0392,0,0,-2.0358,-2.037,-2.0394,-2.0408,-2.0424,-2.0468,-2.0537,-2.0578,-2.0609,-2.0633,-2.069,-2.0758,-2.0714,-2.0736,-2.0711,-2.0763,-2.0892,-2.0709,-2.0709,-2.0744,-2.1031,-2.1069,-2.1094,-2.0864,-2.0868,-2.0871,-2.103,0,-2.0517,-2.0637,-2.0607,-2.0726,-2.0778,-2.0718,-2.0778,-2.0795,-2.0789,-2.0831,-2.0824,-2.0874,-2.0811,-2.0823,-2.0871,-2.0867,-2.095,-2.0854,-2.0918,-2.0921,-2.0917,-2.1121,-2.1161,-2.1311,-2.105,-2.1053,-2.1056,0,-2.072,-2.0752,-2.0875,-2.0882,-2.0903,-2.0958,-2.0993,-2.1034,-2.1051,-2.1042,-2.1066,-2.103,-2.1098,-2.102,-2.1112,-2.1048,-2.1071,-2.1072,-2.1077,-2.1085,-2.0999,-2.1136,-2.1358,-2.1381,-2.1087,-2.1085,-2.1083,0,-2.0876,-2.0948,-2.1032,-2.1045,-2.1055,-2.1095,-2.1101,-2.1113,-2.1139,-2.1169,-2.1186,-2.1223,-2.1244,-2.1274,-2.1249,-2.1194,-2.1346,-2.1266,-2.1341,-2.1342,-2.1379,-2.1377,-2.161,-2.139,-2.139,-2.139,-2.1389,0,-2.1058,-2.1137,-2.1101,-2.1153,-2.1238,-2.1203,-2.1288,-2.1287,-2.1298,-2.1348,-2.1297,-2.1345,-2.1308,-2.1353,-2.1333,-2.1413,-2.1423,-2.1418,-2.1413,-2.1424,-2.1425,-2.1441,-2.1431,-2.1396,-2.1394,-2.1393,-2.1392,0,-2.1248,-2.1227,-2.1314,-2.1315,-2.1317,-2.138,-2.1381,-2.1429,-2.1417,-2.148,-2.1493,-2.1476,-2.1525,-2.1502,-2.1554,-2.1541,-2.1644,-2.1624,-2.1639,-2.1635,-2.1712,-2.1706,-2.1966,-2.1998,-2.1756,-2.1758,-2.176,0,-2.1367,-2.1426,-2.1433,-2.1462,-2.1471,-2.152,-2.1546,-2.1512,-2.1541,-2.1563,-2.1608,-2.1652,-2.1687,-2.1768,-2.176,-2.1799,-2.178,-2.1868,-2.1786,-2.1795,-2.1783,-2.1781,-2.1787,-2.1886,-2.1889,-2.1891,-2.1893,0,-2.1581,-2.1568,-2.1607,-2.1643,-2.1676,-2.1702,-2.1725,-2.1751,-2.1718,-2.1753,-2.1802,-2.1829,-2.1881,-2.1926,-2.196,-2.1965,-2.1924,-2.1918,-2.1938,-2.1952,-2.1959,-2.1958,-2.1687,-2.1913,-2.1911,-2.191,-2.1909,-2.1908,-2.1741,-2.179,-2.1802,-2.1847,-2.186,-2.1881,-2.1926,-2.1919,-2.196,-2.2,-2.1976,-2.2034,-2.2047,-2.2088,-2.2098,-2.2143,-2.2108,-2.2137,-2.2144,-2.2153,-2.2164,-2.195,-2.2149,-2.2148,-2.2147,-2.2147,-2.2147,0,-2.1954,-2.1958,-2.2,-2.2032,-2.2067,-2.2023,-2.2045,-2.2078,-2.213,-2.2145,-2.2179,-2.2235,-2.2278,-2.2272,-2.2311,-2.2348,-2.233,-2.2359,-2.2358,-2.236,-2.2192,-2.2172,-2.2373,-2.2373,-2.2373,-2.2373,-2.2373,-2.2373,-2.2069,-2.215,-2.2137,-2.2223,-2.2226,-2.2283,-2.2299,-2.2318,-2.233,-2.2395,-2.243,-2.2425,-2.2432,-2.2471,-2.2508,-2.2504,-2.2522,-2.2559,-2.2549,-2.2394,-2.2371,-2.235,-2.2331,-2.2563,-2.2563,-2.2713,-2.2715,-2.2716]},{"header":{"parameterUnit":"m.s-1","parameterCategory":1,"la1":30.2991,"la2":30.254,"lo1":-89.0895,"lo2":-89.0444,"dy":0.0017,"dx":0.0017,"nx":28,"ny":28,"refTime":"2024-04-21T21:00:00:Z","depth":0,"parameterNumber":3,"parameterNumberName":"V-component_of_WINDS"},"data":[0,0,0,0,0,0,0,0,0,0,0,0,0,0,0,0,0,0,0,0,0,0,0,0,0,0,0,0,0,0,0,0,0,0,0,0,0,0,0,0,0,0,0,0,0,0,0,0,0,0,0,0,0,0,0,0,0,0,-7.7856,-7.7858,0,-7.8049,-7.8051,-7.8053,-7.7973,-7.7968,-7.7964,-7.796,-7.8149,-7.8158,-7.8167,0,0,0,0,0,0,0,0,0,0,0,0,0,-7.7411,-7.7419,-7.7856,-7.7858,-7.7861,-7.8048,-7.8051,-7.8053,-7.7974,-7.7968,-7.7963,-7.7958,-7.8146,-7.8157,-7.8168,0,0,0,0,0,0,0,0,0,0,0,0,0,-7.7604,-7.7422,-7.7856,-7.7844,-7.7845,-7.8048,-7.8051,-7.8054,-7.7975,-7.7968,-7.7961,-7.7955,-7.8142,-7.8156,-7.8169,-7.8393,0,0,-7.8212,-7.8218,0,0,0,0,0,0,0,0,-7.7593,-7.762,-7.7843,-7.7845,-7.7846,-7.798,-7.7963,-7.8167,-7.7977,-7.7925,-7.7959,-7.7952,-7.8098,-7.8115,-7.8166,-7.8402,-7.841,-7.8213,-7.8222,-7.8228,-7.8232,0,0,0,0,0,0,0,-7.758,-7.7611,-7.7932,-7.7846,-7.7849,-7.7826,-7.7846,-7.8002,-7.8047,-7.7929,-7.7924,-7.7948,-7.8097,-7.8153,-7.817,-7.8413,-7.8213,-7.8225,-7.8234,-7.8239,-7.8839,-7.8846,0,0,0,0,0,0,-7.7567,-7.7601,-7.7926,-7.7938,-7.77,-7.784,-7.7862,-7.7944,-7.8046,-7.8055,-7.7954,-7.7944,-7.8132,-7.8153,-7.8176,-7.8443,-7.8228,-7.8241,-7.8249,-7.8832,-7.8841,-7.8849,0,0,0,0,0,0,-7.7558,-7.7597,-7.7918,-7.7768,-7.7807,-7.7855,-7.7947,-7.7951,-7.8007,-7.8064,-7.8071,-7.8003,-7.8128,-7.8156,-7.834,-7.8449,-7.8247,-7.826,-7.8823,-7.8834,-7.8845,-7.8981,0,0,0,0,0,0,-7.7545,-7.7594,-7.7682,-7.7771,-7.7816,-7.8082,-7.7954,-7.796,-7.8032,-7.8021,-7.8112,-7.812,-7.8124,-7.8319,-7.8354,-7.8464,-7.8271,-7.8813,-7.8828,-7.8841,-7.8967,-7.8995,-7.902,0,0,0,0,0,-7.753,-7.7711,-7.7687,-7.7726,-7.7927,-7.8088,-7.8114,-7.8117,-7.8041,-7.8128,-7.8165,-7.8117,-7.8431,-7.8339,-7.8377,-7.8493,-7.8806,-7.8824,-7.884,-7.8955,-7.899,-7.9019,0,0,0,0,0,0,-7.7631,-7.7722,-7.7696,-7.7912,-7.7994,-7.8075,-7.8185,-7.8154,-7.8256,-7.8241,-7.8238,-7.8259,-7.8449,-7.8489,-7.8384,-7.8714,-7.8607,-7.8632,-7.8681,-7.8715,-7.8741,-7.8727,-7.8282,0,0,0,0,0,-7.7679,-7.7806,-7.7877,-7.806,-7.8103,-7.8137,-7.8208,-7.8203,-7.8286,-7.8319,-7.8369,-7.8449,-7.8565,-7.8642,-7.8752,-7.8972,-7.8989,-7.907,-7.9097,-7.9118,-7.914,-7.9258,-7.9294,-7.8905,-7.8905,-7.8904,0,0,-7.7779,-7.7844,-7.7924,-7.8083,-7.8145,-7.8273,-7.8166,-7.8307,-7.8401,-7.8339,-7.8517,-7.8556,-7.8644,-7.8847,-7.8938,-7.8886,-7.9252,-7.914,-7.9157,-7.9167,-7.9279,-7.9316,-7.9348,-7.8916,-7.8914,-7.8912,0,0,-7.8026,-7.8089,-7.8248,-7.8313,-7.841,-7.8431,-7.8469,-7.8555,-7.858,-7.8758,-7.8714,-7.8824,-7.9025,-7.909,-7.9149,-7.9419,-7.9379,-7.9455,-7.9593,-7.9708,-7.9738,-7.9766,-7.9861,-7.9895,-7.9476,-7.9477,-7.9477,0,-7.8137,-7.8331,-7.8333,-7.8478,-7.8548,-7.85,-7.866,-7.8721,-7.8848,-7.8896,-7.8837,-7.9088,-7.9144,-7.936,-7.9426,-7.9476,-7.9517,-7.9445,-7.9734,-7.9762,-7.9787,-7.9878,-7.9914,-7.9485,-7.9484,-7.9483,-7.9482,0,-7.8462,-7.8597,-7.8714,-7.884,-7.8923,-7.9075,-7.9097,-7.918,-7.9168,-7.9194,-7.9374,-7.944,-7.9563,-7.9613,-7.9602,-7.9828,-7.9792,-7.9734,-7.9626,-7.9833,-7.9918,-7.9953,-7.9497,-7.9494,-7.9492,-7.949,0,0,-7.878,-7.8905,-7.8948,-7.9004,-7.9106,-7.9209,-7.9357,-7.9479,-7.955,-7.9638,-7.976,-7.9931,-7.9877,-7.9944,-7.9939,-8.004,-8.0248,-7.9969,-7.9971,-8.0018,-8.0499,-8.0543,-8.0583,-8.0222,-8.0229,-8.0234,-8.0492,0,-7.9034,-7.9297,-7.9302,-7.9542,-7.9665,-7.9621,-7.9749,-7.9824,-7.9852,-7.9959,-7.9988,-8.011,-8.003,-8.007,-8.0168,-8.0203,-8.0345,-8.0184,-8.0333,-8.0339,-8.0313,-8.0628,-8.0675,-8.0915,-8.0525,-8.0531,-8.0535,0,-7.9367,-7.9469,-7.9721,-7.9805,-7.9857,-7.9973,-8.0084,-8.0187,-8.027,-8.0283,-8.0358,-8.0338,-8.0485,-8.0373,-8.0575,-8.0465,-8.0526,-8.0552,-8.0561,-8.0575,-8.045,-8.065,-8.0991,-8.1027,-8.0587,-8.0583,-8.0579,0,-7.9573,-7.9772,-7.9949,-7.9998,-8.01,-8.0182,-8.0228,-8.0304,-8.0377,-8.0473,-8.0519,-8.063,-8.0691,-8.0776,-8.0785,-8.0703,-8.0987,-8.0876,-8.1001,-8.1001,-8.1063,-8.1059,-8.1419,-8.1103,-8.1102,-8.1101,-8.1101,0,-7.9857,-8.0013,-8.0043,-8.0152,-8.0324,-8.0327,-8.0496,-8.0535,-8.0603,-8.0716,-8.0682,-8.0789,-8.0794,-8.0902,-8.0909,-8.1074,-8.1102,-8.1115,-8.1115,-8.1118,-8.1117,-8.1158,-8.1141,-8.1111,-8.1109,-8.1107,-8.1105,0,-8.0116,-8.0143,-8.0332,-8.0413,-8.0437,-8.0561,-8.0628,-8.0731,-8.0755,-8.0899,-8.0932,-8.097,-8.1095,-8.1113,-8.1258,-8.1263,-8.1461,-8.1444,-8.1435,-8.1432,-8.1555,-8.1543,-8.1954,-8.2008,-8.1657,-8.166,-8.1663,0,-8.0296,-8.0415,-8.0509,-8.0584,-8.0635,-8.0755,-8.083,-8.0836,-8.0914,-8.1017,-8.1106,-8.1228,-8.1327,-8.1528,-8.1567,-8.1677,-8.1662,-8.1798,-8.1678,-8.1677,-8.1663,-8.1656,-8.1667,-8.1821,-8.1825,-8.1828,-8.1831,0,-8.0611,-8.0618,-8.0728,-8.0843,-8.0934,-8.1023,-8.1108,-8.117,-8.1186,-8.1275,-8.1404,-8.1481,-8.163,-8.1751,-8.1861,-8.1904,-8.187,-8.1868,-8.1903,-8.1907,-8.1897,-8.1904,-8.1498,-8.1859,-8.1856,-8.1854,-8.1853,-8.1851,-8.0836,-8.094,-8.1023,-8.1145,-8.121,-8.129,-8.139,-8.1427,-8.1536,-8.166,-8.1656,-8.1797,-8.1874,-8.2018,-8.2069,-8.2178,-8.2132,-8.2183,-8.2195,-8.2208,-8.222,-8.188,-8.2197,-8.2196,-8.2196,-8.2195,-8.2195,0,-8.115,-8.1201,-8.1314,-8.1434,-8.153,-8.1492,-8.1583,-8.1665,-8.1791,-8.1867,-8.1965,-8.2112,-8.2229,-8.2277,-8.2391,-8.2468,-8.2455,-8.2498,-8.2492,-8.2502,-8.2254,-8.2213,-8.2506,-8.2506,-8.2506,-8.2506,-8.2506,-8.2506,-8.1324,-8.1498,-8.1514,-8.1718,-8.1766,-8.1907,-8.1962,-8.2034,-8.2095,-8.2262,-8.236,-8.2391,-8.2455,-8.2573,-8.2677,-8.2688,-8.2731,-8.278,-8.2784,-8.2551,-8.252,-8.249,-8.2451,-8.279,-8.279,-8.3023,-8.3025,-8.3027]}]]